Twin Falls, ID

9:43 AM MST on February 19, 2017 (GMT -0700)
Joslin Field-Magic Valley Regional

Weather History for KTWF - January, 2013

Change the Weather History Date:

Tuesday, January 29, 2013

  Actual Average Record
Temperature  
Mean Temperature 35 °F -  
Max Temperature 38 °F 39 °F 56 °F (2014)
Min Temperature 31 °F 22 °F 0 °F (2017)
Degree Days  
Heating Degree Days 30 35  
Month to date heating degree days 1324 1029  
Since 1 July heating degree days 3372 3596  
Cooling Degree Days 0 0  
Month to date cooling degree days 0 0  
Year to date cooling degree days 0 0  
Moisture  
Dew Point 26 °F    
Average Humidity 75    
Maximum Humidity 85    
Minimum Humidity 64    
Precipitation  
Precipitation T in 0.02 in 0.43 in (2016)
Month to date precipitation 0.14 0.92  
Year to date precipitation 0.14 0.92  
Sea Level Pressure  
Sea Level Pressure 29.93 in    
Wind  
Wind Speed 23 mph (WSW)    
Max Wind Speed 35 mph    
Max Gust Speed 44 mph    
Visibility 8 miles    
Events Snow    
T = Trace of Precipitation, MM = Missing Value Source: NWS Daily Summary

Daily Weather History Graph

Daily Weather History Graph

Search for Another Location

Airport or City:

Trip Planner

Search our weather history database for the weather conditions in past years. The results will help you decide how hot, cold, wet, or windy it might be!

Date:

Astronomy

Jan. 29, 2013 Rise Set
Actual Time 7:54 AM MST 5:48 PM MST
Civil Twilight 7:24 AM MST 6:18 PM MST
Nautical Twilight 6:50 AM MST 6:52 PM MST
Astronomical Twilight 6:17 AM MST 7:25 PM MST
Moon 8:53 PM MST (1/29) 8:49 AM MST (1/29)
Length of Visible Light 10h 53m
Length of Day
9h 53m
Waning Gibbous, 93% of the Moon is Illuminated
Jan 29
Waning Gibbous
Feb 3
Last Quarter
Feb 10
New
Feb 17
First Quarter
Feb 25
Full

Hourly Weather History & Observations

Time (MST) Temp. Windchill Dew Point Humidity Pressure Visibility Wind Dir Wind Speed Gust Speed Precip Events Conditions
12:01 AM 30.2 °F 19.3 °F 24.8 °F 80% 29.88 in 9.0 mi WSW 15.0 mph 23.0 mph 0.00 in   Overcast
12:23 AM 30.2 °F 18.5 °F 24.8 °F 80% 29.87 in 10.0 mi WSW 17.3 mph 23.0 mph 0.00 in   Overcast
12:42 AM 30.2 °F 18.9 °F 24.8 °F 80% 29.87 in 10.0 mi WSW 16.1 mph - 0.00 in   Overcast
12:53 AM 30.9 °F 19.1 °F 25.0 °F 79% 29.88 in 10.0 mi WSW 18.4 mph 24.2 mph 0.00 in   Overcast
1:24 AM 30.2 °F 18.9 °F 26.6 °F 86% 29.86 in 8.0 mi West 16.1 mph 25.3 mph N/A   Overcast
1:36 AM 30.2 °F 18.1 °F 26.6 °F 86% 29.86 in 10.0 mi WSW 18.4 mph - N/A   Overcast
1:53 AM 30.9 °F 20.7 °F 26.1 °F 82% 29.86 in 10.0 mi WSW 13.8 mph - N/A   Overcast
2:17 AM 30.2 °F 20.8 °F 26.6 °F 86% 29.85 in 2.5 mi WSW 11.5 mph - 0.00 in Snow Light Snow
2:29 AM 30.2 °F 19.8 °F 26.6 °F 86% 29.86 in 1.8 mi WSW 13.8 mph - 0.00 in Snow Light Snow
2:39 AM 30.2 °F 20.2 °F 26.6 °F 86% 29.85 in 3.0 mi WSW 12.7 mph - 0.00 in Snow Light Snow
2:46 AM 30.2 °F 19.8 °F 26.6 °F 86% 29.85 in 3.0 mi WSW 13.8 mph - 0.00 in Snow Light Snow
2:53 AM 30.9 °F 21.2 °F 26.1 °F 82% 29.86 in 1.8 mi WSW 12.7 mph - 0.00 in Snow Light Snow
3:09 AM 30.2 °F 18.9 °F 26.6 °F 86% 29.85 in 2.5 mi WSW 16.1 mph - 0.00 in Snow Light Snow
3:22 AM 30.2 °F 18.5 °F 26.6 °F 86% 29.85 in 2.0 mi WSW 17.3 mph - 0.00 in Snow Light Snow
3:37 AM 30.2 °F 18.9 °F 26.6 °F 86% 29.84 in 1.2 mi WSW 16.1 mph - 0.00 in Snow Light Snow
3:51 AM 30.2 °F 18.5 °F 26.6 °F 86% 29.84 in 3.0 mi WSW 17.3 mph - 0.00 in Snow Light Snow
3:52 AM 30.9 °F 19.1 °F 26.1 °F 82% 29.86 in 3.0 mi WSW 18.4 mph - 0.00 in Snow Light Snow
4:15 AM 30.2 °F 18.5 °F 26.6 °F 86% 29.84 in 8.0 mi WSW 17.3 mph - 0.00 in   Overcast
4:31 AM 30.2 °F 17.8 °F 26.6 °F 86% 29.84 in 9.0 mi WSW 19.6 mph 26.5 mph 0.00 in   Overcast
4:43 AM 32.0 °F 20.5 °F 26.6 °F 80% 29.84 in 10.0 mi WSW 18.4 mph - 0.00 in   Overcast
4:53 AM 32.0 °F 19.8 °F 26.1 °F 79% 29.85 in 8.0 mi WSW 20.7 mph 26.5 mph 0.00 in Snow Light Snow
5:25 AM 30.2 °F 18.5 °F 26.6 °F 86% 29.84 in 7.0 mi WSW 17.3 mph 25.3 mph 0.00 in   Overcast
5:33 AM 30.2 °F 17.8 °F 26.6 °F 86% 29.84 in 6.0 mi WSW 19.6 mph - 0.00 in Snow Light Snow
5:53 AM 30.9 °F 19.1 °F 27.0 °F 85% 29.85 in 7.0 mi WSW 18.4 mph - 0.00 in   Overcast
6:44 AM 32.0 °F 19.2 °F 26.6 °F 80% 29.84 in 10.0 mi West 23.0 mph 31.1 mph 0.00 in   Overcast
6:53 AM 32.0 °F 18.9 °F 27.0 °F 82% 29.87 in 10.0 mi West 24.2 mph 32.2 mph 0.00 in   Overcast
7:53 AM 32.0 °F 18.9 °F 26.1 °F 79% 29.88 in 10.0 mi West 24.2 mph 38.0 mph N/A   Overcast
8:53 AM 32.0 °F 18.4 °F 27.0 °F 82% 29.90 in 10.0 mi West 26.5 mph 32.2 mph N/A   Overcast
9:53 AM 33.1 °F 19.6 °F 27.0 °F 78% 29.92 in 10.0 mi West 27.6 mph 40.3 mph N/A   Overcast
10:36 AM 33.8 °F 19.9 °F 26.6 °F 75% 29.92 in 10.0 mi West 31.1 mph 39.1 mph N/A   Scattered Clouds
10:53 AM 35.1 °F 21.4 °F 26.1 °F 70% 29.94 in 10.0 mi West 32.2 mph 40.3 mph N/A   Clear
11:53 AM 35.1 °F 22.0 °F 27.0 °F 72% 29.97 in 10.0 mi West 28.8 mph 42.6 mph N/A   Clear
12:53 PM 36.0 °F 23.7 °F 27.0 °F 70% 29.98 in 10.0 mi West 26.5 mph 38.0 mph N/A   Partly Cloudy
1:53 PM 37.0 °F 24.5 °F 27.0 °F 67% 30.00 in 10.0 mi West 29.9 mph 39.1 mph N/A   Scattered Clouds
2:53 PM 37.0 °F 24.5 °F 27.0 °F 67% 30.01 in 10.0 mi West 29.9 mph 39.1 mph N/A   Clear
3:53 PM 36.0 °F 23.0 °F 26.1 °F 67% 30.03 in 10.0 mi West 29.9 mph 39.1 mph N/A   Clear
4:53 PM 36.0 °F 23.5 °F 26.1 °F 67% 30.06 in 10.0 mi West 27.6 mph 35.7 mph N/A   Clear
5:53 PM 34.0 °F 21.5 °F 26.1 °F 73% 30.10 in 10.0 mi West 24.2 mph 34.5 mph N/A   Clear
6:53 PM 33.1 °F 20.6 °F 26.1 °F 75% 30.12 in 10.0 mi West 23.0 mph 28.8 mph N/A   Clear
7:53 PM 33.1 °F 20.3 °F 26.1 °F 75% 30.15 in 10.0 mi WSW 24.2 mph 32.2 mph N/A   Clear
8:53 PM 34.0 °F 22.1 °F 26.1 °F 73% 30.16 in 10.0 mi WSW 21.9 mph 32.2 mph N/A   Clear
9:53 PM 34.0 °F 22.1 °F 26.1 °F 73% 30.16 in 10.0 mi WSW 21.9 mph - N/A   Clear
10:53 PM 34.0 °F 22.7 °F 26.1 °F 73% 30.17 in 10.0 mi WSW 19.6 mph 26.5 mph N/A   Partly Cloudy
11:53 PM 36.0 °F 25.3 °F 27.0 °F 70% 30.17 in 10.0 mi WSW 19.6 mph - N/A   Overcast